When you browse on this site, cookies collect data to enhance your experience and personalize the content and advertising you see.
Visit our Privacy Policy to learn more. By continuing to use the site, you agree to this use of cookies and data.

Hourly Weather Grijo

Today, 26 September, Saturday

Time Temperature Precipitation Wind Pressure Humidity
00:00 +13°C° 0 mm 4 mps 759 mmHg 76%
01:00 +12°C° 0 mm 4 mps 759 mmHg 77%
02:00 +12°C° 0 mm 4 mps 759 mmHg 77%
03:00 +12°C° 0 mm 4 mps 758 mmHg 77%
04:00 +12°C° 0 mm 4 mps 758 mmHg 77%
05:00 +11°C° 0 mm 4 mps 758 mmHg 77%
06:00 +13°C° 0 mm 4 mps 758 mmHg 71%
07:00 +15°C° 0 mm 4 mps 758 mmHg 65%
08:00 +17°C° 0 mm 4 mps 758 mmHg 58%
09:00 +18°C° 0 mm 4 mps 758 mmHg 56%
10:00 +20°C° 0 mm 5 mps 758 mmHg 54%
11:00 +21°C° 0 mm 5 mps 757 mmHg 51%
12:00 +21°C° 0 mm 5 mps 757 mmHg 53%
13:00 +21°C° 0 mm 6 mps 757 mmHg 55%
14:00 +21°C° 0 mm 6 mps 756 mmHg 57%
15:00 +20°C° 0 mm 5 mps 756 mmHg 62%
16:00 +19°C° 0 mm 5 mps 756 mmHg 67%
17:00 +18°C° 0 mm 4 mps 756 mmHg 73%
18:00 +18°C° 0 mm 4 mps 756 mmHg 77%
19:00 +17°C° 0 mm 3 mps 755 mmHg 81%
20:00 +17°C° 0 mm 3 mps 755 mmHg 86%
21:00 +17°C° 0.3 mm 4 mps 755 mmHg 89%
22:00 +17°C° 0.3 mm 4 mps 755 mmHg 92%
23:00 +17°C° 0.3 mm 5 mps 755 mmHg 95%

Tomorrow, 27 September, Sunday

Time Temperature Precipitation Wind Pressure Humidity
00:00 +17°C° 0.1 mm 4 mps 754 mmHg 95%
01:00 +17°C° 0.1 mm 4 mps 754 mmHg 95%
02:00 +17°C° 0.1 mm 4 mps 753 mmHg 95%
03:00 +17°C° 0 mm 4 mps 753 mmHg 94%
04:00 +15°C° 0 mm 4 mps 753 mmHg 93%
05:00 +15°C° 0 mm 5 mps 753 mmHg 92%
06:00 +17°C° 0 mm 4 mps 753 mmHg 86%
07:00 +18°C° 0 mm 4 mps 753 mmHg 80%
08:00 +19°C° 0 mm 4 mps 753 mmHg 75%
09:00 +20°C° 0 mm 4 mps 753 mmHg 66%
10:00 +22°C° 0 mm 4 mps 753 mmHg 58%
11:00 +23°C° 0 mm 5 mps 753 mmHg 50%
12:00 +25°C° 0 mm 5 mps 753 mmHg 50%
13:00 +24°C° 0 mm 6 mps 752 mmHg 50%
14:00 +24°C° 0 mm 7 mps 752 mmHg 50%
15:00 +23°C° 0 mm 7 mps 752 mmHg 55%
16:00 +22°C° 0 mm 6 mps 752 mmHg 60%
17:00 +20°C° 0 mm 6 mps 752 mmHg 65%
18:00 +19°C° 0 mm 6 mps 752 mmHg 69%
19:00 +17°C° 0 mm 5 mps 753 mmHg 72%
20:00 +17°C° 0 mm 4 mps 753 mmHg 76%
21:00 +17°C° 0 mm 4 mps 753 mmHg 77%
22:00 +16°C° 0 mm 3 mps 753 mmHg 77%
23:00 +16°C° 0 mm 3 mps 753 mmHg 78%

Day after tomorrow, 28 September, Monday

Time Temperature Precipitation Wind Pressure Humidity
00:00 +16°C° 0 mm 3 mps 753 mmHg 76%
01:00 +14°C° 0 mm 3 mps 753 mmHg 75%
02:00 +14°C° 0 mm 3 mps 752 mmHg 73%
03:00 +15°C° 0 mm 2 mps 752 mmHg 70%
04:00 +15°C° 0 mm 2 mps 753 mmHg 66%
05:00 +15°C° 0 mm 2 mps 753 mmHg 63%
06:00 +16°C° 0 mm 2 mps 753 mmHg 56%
07:00 +18°C° 0 mm 2 mps 753 mmHg 48%
08:00 +20°C° 0 mm 2 mps 753 mmHg 41%
09:00 +23°C° 0 mm 2 mps 753 mmHg 36%
10:00 +25°C° 0 mm 2 mps 753 mmHg 32%
11:00 +27°C° 0 mm 2 mps 753 mmHg 27%
12:00 +27°C° 0 mm 3 mps 752 mmHg 28%
13:00 +27°C° 0 mm 3 mps 752 mmHg 28%
14:00 +27°C° 0 mm 3 mps 752 mmHg 29%
15:00 +25°C° 0 mm 3 mps 752 mmHg 33%
16:00 +24°C° 0 mm 3 mps 752 mmHg 38%
17:00 +21°C° 0 mm 3 mps 752 mmHg 43%
18:00 +20°C° 0 mm 3 mps 752 mmHg 43%
19:00 +20°C° 0 mm 2 mps 752 mmHg 44%
20:00 +19°C° 0 mm 2 mps 752 mmHg 45%
21:00 +19°C° 0 mm 2 mps 752 mmHg 44%
22:00 +19°C° 0 mm 2 mps 752 mmHg 43%
23:00 +20°C° 0 mm 1 mps 752 mmHg 43%

29 September, Tuesday

Time Temperature Precipitation Wind Pressure Humidity
00:00 +20°C° 0 mm 1 mps 752 mmHg 41%
01:00 +19°C° 0 mm 1 mps 752 mmHg 40%
02:00 +19°C° 0 mm 1 mps 751 mmHg 39%
03:00 +19°C° 0 mm 1 mps 751 mmHg 38%
04:00 +18°C° 0 mm 1 mps 751 mmHg 38%
05:00 +18°C° 0 mm 1 mps 751 mmHg 38%
06:00 +20°C° 0 mm 1 mps 751 mmHg 35%
07:00 +22°C° 0 mm 1 mps 752 mmHg 31%
08:00 +23°C° 0 mm 1 mps 752 mmHg 28%
09:00 +25°C° 0 mm 1 mps 752 mmHg 26%
10:00 +27°C° 0 mm 2 mps 752 mmHg 24%
11:00 +28°C° 0 mm 3 mps 752 mmHg 22%
12:00 +28°C° 0 mm 3 mps 752 mmHg 24%
13:00 +28°C° 0 mm 3 mps 751 mmHg 27%
14:00 +27°C° 0 mm 3 mps 751 mmHg 29%
15:00 +25°C° 0 mm 3 mps 751 mmHg 36%
16:00 +22°C° 0 mm 3 mps 751 mmHg 44%
17:00 +20°C° 0 mm 3 mps 751 mmHg 52%
18:00 +19°C° 0 mm 3 mps 752 mmHg 56%
19:00 +18°C° 0 mm 3 mps 752 mmHg 60%
20:00 +17°C° 0 mm 3 mps 752 mmHg 63%
21:00 +17°C° 0 mm 2 mps 752 mmHg 65%
22:00 +17°C° 0 mm 2 mps 752 mmHg 66%
23:00 +16°C° 0 mm 2 mps 752 mmHg 68%

30 September, Wednesday

Time Temperature Precipitation Wind Pressure Humidity
00:00 +16°C° 0 mm 2 mps 752 mmHg 69%
01:00 +15°C° 0 mm 2 mps 752 mmHg 71%
02:00 +15°C° 0 mm 2 mps 751 mmHg 72%
03:00 +15°C° 0 mm 2 mps 752 mmHg 72%
04:00 +15°C° 0 mm 2 mps 752 mmHg 72%
05:00 +14°C° 0 mm 2 mps 752 mmHg 71%
06:00 +16°C° 0 mm 2 mps 752 mmHg 64%
07:00 +18°C° 0 mm 2 mps 752 mmHg 57%
08:00 +20°C° 0 mm 2 mps 752 mmHg 51%
09:00 +23°C° 0 mm 2 mps 752 mmHg 48%
10:00 +24°C° 0 mm 3 mps 752 mmHg 45%
11:00 +25°C° 0 mm 4 mps 752 mmHg 42%
12:00 +23°C° 0 mm 4 mps 752 mmHg 47%
13:00 +23°C° 0 mm 4 mps 751 mmHg 53%
14:00 +23°C° 0 mm 5 mps 751 mmHg 59%
15:00 +21°C° 0 mm 4 mps 751 mmHg 66%
16:00 +20°C° 0 mm 4 mps 751 mmHg 73%
17:00 +19°C° 0 mm 4 mps 751 mmHg 80%
18:00 +18°C° 0 mm 4 mps 752 mmHg 83%
19:00 +17°C° 0 mm 4 mps 752 mmHg 87%
20:00 +17°C° 0 mm 4 mps 753 mmHg 91%
21:00 +16°C° 0 mm 3 mps 752 mmHg 90%
22:00 +16°C° 0 mm 2 mps 752 mmHg 90%
23:00 +16°C° 0 mm 2 mps 752 mmHg 90%

1 October, Thursday

Time Temperature Precipitation Wind Pressure Humidity
00:00 +16°C° 0 mm 2 mps 752 mmHg 89%
01:00 +17°C° 0 mm 2 mps 751 mmHg 87%
02:00 +17°C° 0 mm 2 mps 751 mmHg 86%
03:00 +17°C° 0.2 mm 3 mps 751 mmHg 87%
04:00 +17°C° 0.2 mm 4 mps 751 mmHg 87%
05:00 +17°C° 0.2 mm 4 mps 750 mmHg 88%
06:00 +17°C° 0.5 mm 4 mps 750 mmHg 89%
07:00 +18°C° 0.5 mm 3 mps 750 mmHg 89%
08:00 +18°C° 0.5 mm 3 mps 750 mmHg 89%
09:00 +19°C° 0.6 mm 4 mps 750 mmHg 86%
10:00 +20°C° 0.6 mm 4 mps 750 mmHg 83%
11:00 +21°C° 0.6 mm 4 mps 750 mmHg 80%
12:00 +21°C° 0.4 mm 5 mps 749 mmHg 79%
13:00 +21°C° 0.4 mm 5 mps 749 mmHg 78%
14:00 +21°C° 0.4 mm 5 mps 749 mmHg 77%
15:00 +20°C° 0.4 mm 4 mps 749 mmHg 79%
16:00 +19°C° 0.4 mm 4 mps 748 mmHg 82%
17:00 +18°C° 0.4 mm 3 mps 748 mmHg 84%
18:00 +18°C° 0.2 mm 3 mps 748 mmHg 86%
19:00 +18°C° 0.2 mm 3 mps 748 mmHg 88%
20:00 +17°C° 0.2 mm 3 mps 748 mmHg 90%
21:00 +17°C° 0.2 mm 4 mps 747 mmHg 88%
22:00 +17°C° 0.2 mm 4 mps 747 mmHg 87%
23:00 +16°C° 0.2 mm 5 mps 746 mmHg 86%
Show more